TimeCST,TemperatureF,Dew PointF,Humidity,Sea Level PressureIn,VisibilityMPH,Wind Direction,Wind SpeedMPH,Gust SpeedMPH,PrecipitationIn,Events,Conditions,WindDirDegrees,DateUTC
12:53 AM,25.0,23.0,92,30.01,10.0,Calm,Calm,-,N/A,,Scattered Clouds,0,2013-01-08 06:53:00
1:53 AM,23.0,21.0,92,30.01,8.0,Calm,Calm,-,N/A,,Scattered Clouds,0,2013-01-08 07:53:00
2:53 AM,19.9,19.0,96,30.01,7.0,East,4.6,-,N/A,,Clear,100,2013-01-08 08:53:00
3:53 AM,19.0,18.0,96,29.99,6.0,SE,4.6,-,N/A,,Clear,130,2013-01-08 09:53:00
4:53 AM,19.0,18.0,96,29.99,6.0,SE,3.5,-,N/A,,Partly Cloudy,130,2013-01-08 10:53:00
5:53 AM,17.1,15.1,92,29.98,6.0,East,3.5,-,N/A,,Scattered Clouds,90,2013-01-08 11:53:00
6:53 AM,19.0,18.0,96,29.99,6.0,ESE,5.8,-,N/A,,Mostly Cloudy,110,2013-01-08 12:53:00
7:53 AM,21.2,19.4,93,29.96,5.0,East,6.9,-,N/A,,Mostly Cloudy,100,2013-01-08 13:53:00
8:53 AM,21.9,19.0,89,29.98,8.0,ESE,5.8,-,N/A,,Mostly Cloudy,110,2013-01-08 14:53:00
9:53 AM,24.1,19.9,84,29.96,8.0,ESE,5.8,-,N/A,,Mostly Cloudy,110,2013-01-08 15:53:00
10:53 AM,26.1,21.9,84,29.92,8.0,ESE,11.5,-,N/A,,Mostly Cloudy,120,2013-01-08 16:53:00
11:53 AM,28.9,23.0,78,29.90,8.0,SE,6.9,-,N/A,,Mostly Cloudy,130,2013-01-08 17:53:00
12:41 PM,30.2,24.8,80,29.82,8.0,SE,9.2,-,N/A,,Mostly Cloudy,130,2013-01-08 18:41:00
12:53 PM,30.9,24.1,76,29.85,7.0,SE,9.2,-,N/A,,Mostly Cloudy,140,2013-01-08 18:53:00
1:53 PM,32.0,25.0,75,29.83,8.0,SSE,10.4,-,N/A,,Mostly Cloudy,150,2013-01-08 19:53:00
2:53 PM,33.1,27.0,78,29.82,9.0,SSE,13.8,-,N/A,,Overcast,150,2013-01-08 20:53:00
3:53 PM,33.1,27.0,78,29.81,9.0,SSE,10.4,-,N/A,,Overcast,160,2013-01-08 21:53:00
4:14 PM,33.8,28.4,81,29.77,9.0,SSE,10.4,-,N/A,,Overcast,150,2013-01-08 22:14:00
4:53 PM,33.1,28.0,82,29.80,9.0,South,11.5,-,N/A,,Overcast,170,2013-01-08 22:53:00
5:53 PM,35.1,28.9,78,29.80,10.0,South,8.1,-,N/A,,Overcast,190,2013-01-08 23:53:00
6:53 PM,34.0,28.9,82,29.81,10.0,SW,12.7,-,N/A,,Overcast,220,2013-01-09 00:53:00
7:53 PM,32.0,28.0,85,29.83,10.0,SW,11.5,-,N/A,,Mostly Cloudy,230,2013-01-09 01:53:00
8:00 PM,32.0,26.6,80,29.79,9.0,SW,13.8,18.4,N/A,,Scattered Clouds,230,2013-01-09 02:00:00
8:53 PM,30.9,26.1,82,29.84,8.0,WSW,11.5,-,N/A,,Partly Cloudy,240,2013-01-09 02:53:00
9:14 PM,30.2,26.6,86,29.81,8.0,WSW,13.8,-,N/A,,Mostly Cloudy,250,2013-01-09 03:14:00
9:53 PM,30.9,26.1,82,29.87,8.0,WSW,9.2,-,N/A,,Overcast,250,2013-01-09 03:53:00
10:53 PM,30.2,26.6,86,29.87,9.0,WSW,9.2,-,N/A,,Mostly Cloudy,250,2013-01-09 04:53:00
11:53 PM,30.0,26.1,85,29.94,10.0,SW,6.9,-,N/A,,Overcast,230,2013-01-09 05:53:00